| time (UTC) | temp F | wind direction | speed MPH | gust MPH | rain 1hr in | rain 24hr in | rain mn in | humidity % | barometer mb |
| 20260504100404 | 48 | 220 | 0.0 | 0.0 | 0.00 | 0.00 | 0.00 | 68 | 1007.6 |
| 20260504081905 | 49 | 249 | 1.0 | 5.0 | 0.00 | 0.00 | 0.00 | 68 | 1008.3 |
| 20260504080404 | 49 | 240 | 1.0 | 8.0 | 0.00 | 0.00 | 0.00 | 68 | 1008.4 |
| 20260504070405 | 49 | 244 | 1.0 | 3.0 | 0.00 | 0.00 | 0.00 | 65 | 1009.2 |
| 20260504050404 | 50 | 254 | 0.0 | 0.0 | 0.00 | 0.00 | 0.00 | 64 | 1010.4 |
| 20260504045404 | 50 | 257 | 0.0 | 0.0 | 0.00 | 0.00 | 0.00 | 63 | 1010.5 |
| 20260504044904 | 50 | 257 | 0.0 | 0.0 | 0.00 | 0.00 | 0.00 | 64 | 1010.5 |
| 20260504044405 | 50 | 257 | 0.0 | 0.0 | 0.00 | 0.00 | 0.00 | 65 | 1010.4 |
| 20260504043905 | 50 | 257 | 0.0 | 0.0 | 0.00 | 0.00 | 0.00 | 64 | 1010.4 |
| 20260504042904 | 51 | 257 | 0.0 | 0.0 | 0.00 | 0.00 | 0.00 | 63 | 1010.5 |
| 20260504042404 | 51 | 257 | 0.0 | 0.0 | 0.00 | 0.00 | 0.00 | 63 | 1010.4 |
| 20260504041904 | 51 | 257 | 0.0 | 0.0 | 0.00 | 0.00 | 0.00 | 61 | 1010.4 |
| 20260504041404 | 51 | 257 | 0.0 | 0.0 | 0.00 | 0.00 | 0.00 | 61 | 1010.5 |
| 20260504040404 | 51 | 257 | 0.0 | 0.0 | 0.00 | 0.00 | 0.00 | 61 | 1010.7 |
| 20260504035904 | 51 | 257 | 0.0 | 0.0 | 0.00 | 0.00 | 0.00 | 61 | 1010.8 |
| 20260504035405 | 51 | 257 | 0.0 | 0.0 | 0.00 | 0.00 | 0.00 | 61 | 1011.0 |
| 20260504034404 | 50 | 257 | 0.0 | 1.0 | 0.00 | 0.00 | 0.00 | 60 | 1011.1 |
| 20260504033904 | 50 | 258 | 0.0 | 0.0 | 0.00 | 0.00 | 0.00 | 61 | 1011.1 |
| 20260504033404 | 50 | 257 | 0.0 | 0.0 | 0.00 | 0.00 | 0.00 | 60 | 1011.1 |
| 20260504032904 | 49 | 258 | 0.0 | 0.0 | 0.00 | 0.00 | 0.00 | 61 | 1011.2 |
| 20260504031904 | 49 | 257 | 0.0 | 0.0 | 0.00 | 0.00 | 0.00 | 59 | 1011.5 |
| 20260504031405 | 49 | 257 | 0.0 | 0.0 | 0.00 | 0.00 | 0.00 | 59 | 1011.6 |
| 20260504030904 | 49 | 257 | 0.0 | 0.0 | 0.00 | 0.00 | 0.00 | 60 | 1011.6 |
| 20260504025904 | 48 | 246 | 1.0 | 5.0 | 0.00 | 0.00 | 0.00 | 61 | 1011.6 |
| 20260504025406 | 47 | 207 | 1.0 | 6.0 | 0.00 | 0.00 | 0.00 | 66 | 1011.7 |
| 20260504024904 | 47 | 215 | 0.0 | 0.0 | 0.00 | 0.00 | 0.00 | 67 | 1011.6 |
| 20260504024404 | 47 | 215 | 0.0 | 0.0 | 0.00 | 0.00 | 0.00 | 70 | 1011.4 |
| 20260504023904 | 47 | 215 | 0.0 | 0.0 | 0.00 | 0.00 | 0.00 | 70 | 1011.3 |
| 20260504023405 | 48 | 215 | 0.0 | 0.0 | 0.00 | 0.00 | 0.00 | 68 | 1011.3 |
| 20260504022905 | 48 | 215 | 0.0 | 0.0 | 0.00 | 0.00 | 0.00 | 67 | 1011.3 |
| 20260504021904 | 49 | 215 | 0.0 | 0.0 | 0.00 | 0.00 | 0.00 | 69 | 1011.2 |
| 20260504021404 | 49 | 215 | 0.0 | 0.0 | 0.00 | 0.00 | 0.00 | 67 | 1011.2 |
| 20260504020904 | 50 | 215 | 0.0 | 0.0 | 0.00 | 0.00 | 0.00 | 66 | 1011.3 |
| 20260504020404 | 50 | 215 | 0.0 | 0.0 | 0.00 | 0.00 | 0.00 | 64 | 1011.4 |
| 20260504015904 | 51 | 215 | 0.0 | 0.0 | 0.00 | 0.00 | 0.00 | 64 | 1011.3 |
| 20260504014904 | 51 | 215 | 0.0 | 0.0 | 0.00 | 0.00 | 0.00 | 60 | 1011.3 |
| 20260504014404 | 52 | 215 | 0.0 | 0.0 | 0.00 | 0.00 | 0.00 | 52 | 1011.3 |
| 20260504013904 | 52 | 215 | 0.0 | 0.0 | 0.00 | 0.00 | 0.00 | 52 | 1011.2 |
| 20260504012904 | 52 | 215 | 0.0 | 0.0 | 0.00 | 0.00 | 0.00 | 51 | 1011.1 |
| 20260504012404 | 53 | 215 | 0.0 | 0.0 | 0.00 | 0.00 | 0.00 | 51 | 1011.1 |
| 20260504011905 | 53 | 215 | 0.0 | 0.0 | 0.00 | 0.00 | 0.00 | 51 | 1011.1 |
| 20260504011404 | 53 | 215 | 0.0 | 3.0 | 0.00 | 0.00 | 0.00 | 50 | 1011.1 |
| 20260504010904 | 54 | 213 | 0.0 | 0.0 | 0.00 | 0.00 | 0.00 | 49 | 1011.1 |
| 20260504005904 | 54 | 212 | 0.0 | 0.0 | 0.00 | 0.00 | 0.00 | 48 | 1011.2 |
| 20260504005405 | 55 | 212 | 0.0 | 0.0 | 0.00 | 0.00 | 0.00 | 48 | 1011.2 |
| 20260504004904 | 55 | 207 | 2.0 | 9.0 | 0.00 | 0.00 | 0.00 | 47 | 1011.2 |
| 20260504003404 | 56 | 211 | 0.0 | 0.0 | 0.00 | 0.00 | 0.00 | 47 | 1011.1 |
| 20260504002904 | 56 | 210 | 1.0 | 5.0 | 0.00 | 0.00 | 0.00 | 46 | 1011.1 |
| 20260504001905 | 56 | 214 | 0.0 | 5.0 | 0.00 | 0.00 | 0.00 | 46 | 1011.2 |
| 20260504001404 | 57 | 246 | 1.0 | 8.0 | 0.00 | 0.00 | 0.00 | 45 | 1011.1 |
| 20260504000905 | 57 | 278 | 3.0 | 6.0 | 0.00 | 0.00 | 0.00 | 44 | 1011.1 |
| 20260504000404 | 57 | 259 | 2.0 | 6.0 | 0.00 | 0.00 | 0.00 | 44 | 1011.3 |
| 20260503235904 | 57 | 214 | 3.0 | 14.0 | 0.00 | 0.00 | 0.00 | 44 | 1011.3 |
| 20260503235404 | 57 | 230 | 2.0 | 9.0 | 0.00 | 0.00 | 0.00 | 43 | 1011.3 |
| 20260503234904 | 57 | 239 | 1.0 | 6.0 | 0.00 | 0.00 | 0.00 | 44 | 1011.3 |
| 20260503234404 | 57 | 245 | 2.0 | 6.0 | 0.00 | 0.00 | 0.00 | 43 | 1011.3 |
| 20260503233905 | 57 | 253 | 0.0 | 5.0 | 0.00 | 0.00 | 0.00 | 44 | 1011.4 |
| 20260503233404 | 57 | 271 | 2.0 | 6.0 | 0.00 | 0.00 | 0.00 | 43 | 1011.4 |
| 20260503232905 | 58 | 265 | 0.0 | 0.0 | 0.00 | 0.00 | 0.00 | 44 | 1011.3 |
| 20260503231905 | 58 | 254 | 1.0 | 5.0 | 0.00 | 0.00 | 0.00 | 43 | 1011.3 |
| 20260503231404 | 58 | 251 | 2.0 | 8.0 | 0.00 | 0.00 | 0.00 | 43 | 1011.3 |
| 20260503230905 | 58 | 233 | 0.0 | 3.0 | 0.00 | 0.00 | 0.00 | 44 | 1011.3 |
| 20260503230404 | 58 | 260 | 0.0 | 0.0 | 0.00 | 0.00 | 0.00 | 45 | 1011.6 |
| 20260503225904 | 58 | 262 | 1.0 | 5.0 | 0.00 | 0.00 | 0.00 | 43 | 1011.6 |
| 20260503225404 | 58 | 289 | 2.0 | 6.0 | 0.00 | 0.00 | 0.00 | 43 | 1011.7 |
| 20260503224904 | 58 | 262 | 1.0 | 6.0 | 0.00 | 0.00 | 0.00 | 43 | 1011.6 |
| 20260503224405 | 58 | 273 | 1.0 | 16.0 | 0.00 | 0.00 | 0.00 | 43 | 1011.7 |
| 20260503223904 | 59 | 267 | 3.0 | 12.0 | 0.00 | 0.00 | 0.00 | 43 | 1011.7 |
| 20260503223404 | 59 | 258 | 6.0 | 18.0 | 0.00 | 0.00 | 0.00 | 41 | 1011.7 |
| 20260503222904 | 59 | 235 | 7.0 | 16.0 | 0.00 | 0.00 | 0.00 | 41 | 1011.7 |
| 20260503222404 | 59 | 265 | 7.0 | 16.0 | 0.00 | 0.00 | 0.00 | 42 | 1011.7 |
| 20260503221904 | 59 | 269 | 3.0 | 14.0 | 0.00 | 0.00 | 0.00 | 43 | 1011.7 |
| 20260503221404 | 59 | 268 | 2.0 | 9.0 | 0.00 | 0.00 | 0.00 | 42 | 1011.7 |
| 20260503220904 | 59 | 268 | 2.0 | 12.0 | 0.00 | 0.00 | 0.00 | 42 | 1011.7 |
| 20260503220404 | 59 | 227 | 6.0 | 17.0 | 0.00 | 0.00 | 0.00 | 42 | 1011.8 |
| 20260503215904 | 59 | 227 | 6.0 | 13.0 | 0.00 | 0.00 | 0.00 | 42 | 1011.7 |
| 20260503215404 | 59 | 281 | 1.0 | 17.0 | 0.00 | 0.00 | 0.00 | 41 | 1011.8 |
| 20260503214904 | 59 | 252 | 6.0 | 16.0 | 0.00 | 0.00 | 0.00 | 41 | 1011.8 |
| 20260503214404 | 59 | 261 | 2.0 | 6.0 | 0.00 | 0.00 | 0.00 | 42 | 1011.8 |
| 20260503213905 | 59 | 267 | 4.0 | 14.0 | 0.00 | 0.00 | 0.00 | 42 | 1011.9 |
| 20260503213404 | 60 | 266 | 2.0 | 9.0 | 0.00 | 0.00 | 0.00 | 42 | 1011.7 |
| 20260503212905 | 60 | 220 | 2.0 | 14.0 | 0.00 | 0.00 | 0.00 | 41 | 1011.6 |
| 20260503212404 | 60 | 209 | 2.0 | 12.0 | 0.00 | 0.00 | 0.00 | 44 | 1011.7 |
| 20260503211904 | 60 | 253 | 3.0 | 14.0 | 0.00 | 0.00 | 0.00 | 39 | 1011.7 |
| 20260503211404 | 60 | 245 | 6.0 | 14.0 | 0.00 | 0.00 | 0.00 | 40 | 1011.7 |
| 20260503210404 | 60 | 272 | 3.0 | 9.0 | 0.00 | 0.00 | 0.00 | 39 | 1011.5 |
| 20260503205904 | 60 | 263 | 1.0 | 21.0 | 0.00 | 0.00 | 0.00 | 41 | 1011.5 |
| 20260503205404 | 61 | 295 | 3.0 | 21.0 | 0.00 | 0.00 | 0.00 | 39 | 1011.6 |
| 20260503204904 | 61 | 203 | 7.0 | 21.0 | 0.00 | 0.00 | 0.00 | 39 | 1011.6 |
| 20260503204404 | 60 | 254 | 2.0 | 18.0 | 0.00 | 0.00 | 0.00 | 39 | 1011.8 |
| 20260503203904 | 60 | 266 | 6.0 | 18.0 | 0.00 | 0.00 | 0.00 | 40 | 1011.7 |
| 20260503202904 | 60 | 236 | 3.0 | 17.0 | 0.00 | 0.00 | 0.00 | 39 | 1011.9 |
| 20260503202404 | 60 | 241 | 5.0 | 9.0 | 0.00 | 0.00 | 0.00 | 39 | 1011.9 |
| 20260503201904 | 60 | 248 | 8.0 | 18.0 | 0.00 | 0.00 | 0.00 | 39 | 1011.9 |
| 20260503201404 | 60 | 274 | 2.0 | 16.0 | 0.00 | 0.00 | 0.00 | 41 | 1012.0 |
| 20260503200404 | 60 | 269 | 2.0 | 16.0 | 0.00 | 0.00 | 0.00 | 40 | 1012.2 |
| 20260503195904 | 60 | 235 | 8.0 | 21.0 | 0.00 | 0.00 | 0.00 | 38 | 1012.3 |
| 20260503195404 | 61 | 272 | 7.0 | 18.0 | 0.00 | 0.00 | 0.00 | 36 | 1012.3 |
| 20260503194905 | 62 | 228 | 12.0 | 22.0 | 0.00 | 0.00 | 0.00 | 36 | 1012.4 |
| 20260503194404 | 62 | 248 | 5.0 | 8.0 | 0.00 | 0.00 | 0.00 | 36 | 1012.3 |
| 20260503193904 | 61 | 259 | 4.0 | 13.0 | 0.00 | 0.00 | 0.00 | 36 | 1012.4 |
| 20260503193404 | 62 | 259 | 5.0 | 14.0 | 0.00 | 0.00 | 0.00 | 36 | 1012.5 |
| 20260503192904 | 62 | 238 | 5.0 | 16.0 | 0.00 | 0.00 | 0.00 | 37 | 1012.7 |
| 20260503191404 | 61 | 273 | 8.0 | 18.0 | 0.00 | 0.00 | 0.00 | 37 | 1012.9 |
| 20260503190904 | 60 | 259 | 6.0 | 14.0 | 0.00 | 0.00 | 0.00 | 37 | 1013.0 |
| 20260503190404 | 60 | 261 | 2.0 | 8.0 | 0.00 | 0.00 | 0.00 | 39 | 1013.0 |
| 20260503185404 | 59 | 240 | 7.0 | 12.0 | 0.00 | 0.00 | 0.00 | 37 | 1013.3 |
| 20260503184905 | 59 | 268 | 4.0 | 22.0 | 0.00 | 0.00 | 0.00 | 39 | 1013.4 |
| 20260503184405 | 59 | 242 | 5.0 | 14.0 | 0.00 | 0.00 | 0.00 | 38 | 1013.3 |
| 20260503183904 | 59 | 247 | 5.0 | 14.0 | 0.00 | 0.00 | 0.00 | 39 | 1013.4 |
| 20260503183405 | 60 | 281 | 6.0 | 22.0 | 0.00 | 0.00 | 0.00 | 37 | 1013.4 |
| 20260503182904 | 61 | 244 | 9.0 | 21.0 | 0.00 | 0.00 | 0.00 | 41 | 1013.2 |
| 20260503181904 | 60 | 124 | 5.0 | 18.0 | 0.00 | 0.00 | 0.00 | 42 | 1013.4 |
| 20260503181404 | 59 | 243 | 6.0 | 12.0 | 0.00 | 0.00 | 0.00 | 42 | 1013.6 |
| 20260503180404 | 60 | 228 | 10.0 | 23.0 | 0.00 | 0.00 | 0.00 | 40 | 1013.6 |
| 20260503175904 | 60 | 214 | 5.0 | 22.0 | 0.00 | 0.00 | 0.00 | 42 | 1013.6 |
| 20260503175404 | 60 | 247 | 5.0 | 12.0 | 0.00 | 0.00 | 0.00 | 43 | 1013.7 |
| 20260503174904 | 60 | 250 | 5.0 | 18.0 | 0.00 | 0.00 | 0.00 | 41 | 1013.9 |
| 20260503174404 | 60 | 196 | 3.0 | 6.0 | 0.00 | 0.00 | 0.00 | 42 | 1013.8 |
| 20260503173904 | 60 | 271 | 7.0 | 14.0 | 0.00 | 0.00 | 0.00 | 41 | 1013.8 |
| 20260503172904 | 59 | 252 | 9.0 | 16.0 | 0.00 | 0.00 | 0.00 | 39 | 1014.2 |
| 20260503172404 | 60 | 247 | 6.0 | 12.0 | 0.00 | 0.00 | 0.00 | 40 | 1014.2 |
| 20260503171904 | 60 | 242 | 4.0 | 17.0 | 0.00 | 0.00 | 0.00 | 42 | 1014.2 |
| 20260503171404 | 59 | 254 | 6.0 | 18.0 | 0.00 | 0.00 | 0.00 | 43 | 1014.4 |
| 20260503170404 | 58 | 260 | 5.0 | 16.0 | 0.00 | 0.00 | 0.00 | 43 | 1014.5 |
| 20260503150904 | 53 | 261 | 7.0 | 12.0 | 0.00 | 0.00 | 0.00 | 43 | 1015.5 |
| 20260503150404 | 53 | 241 | 5.0 | 14.0 | 0.00 | 0.00 | 0.00 | 42 | 1015.5 |
| 20260503131404 | 45 | 251 | 8.0 | 12.0 | 0.00 | 0.00 | 0.00 | 60 | 1016.2 |
| 20260503130904 | 45 | 259 | 0.0 | 1.0 | 0.00 | 0.00 | 0.00 | 63 | 1016.2 |
| 20260503130404 | 44 | 256 | 6.0 | 13.0 | 0.00 | 0.01 | 0.00 | 63 | 1016.2 |
| 20260503110404 | 33 | 212 | 0.0 | 0.0 | 0.00 | 0.03 | 0.00 | 93 | 1015.9 |